SCP
1 1 1 1 1 1 1 1 1 1 1 1 1 0 0 1 1 1 1 1 1 1 1 1 1 1 0 0 0 0 0 0 0 0 0 0 0 1 1 1 1 1 1
1 1 1 1 1 1 1 1 1 1 1 1 1 1 1 1 1 1 1 1 1 1 1 1 1 1 0 0 0 0 0 0 0 0 0 0 0 1 1 1 1 1 1
1 1 1 1 1 1 1 1 1 1 1 1 1 1 1 1 1 1 1 1 1 1 1 1 1 1 0 0 0 0 0 0 0 0 0 0 0 1 1 1 1 1 1
1 1 1 1 1 0 0 0 1 1 1 1 1 1 1 1 1 1 1 1 1 1 1 1 1 0 0 0 0 0 0 0 0 0 0 1 1 1 1 1 1 1 1
1 1 1 0 0 0 0 0 0 0 0 1 1 0 1 1 1 1 1 1 1 1 1 1 0 0 0 0 0 0 0 0 0 0 1 1 1 1 1 1 1 1 1
1 1 0 0 0 0 0 0 0 0 0 0 0 0 1 1 1 1 1 1 1 1 1 0 0 0 0 0 0 0 0 0 0 1 1 2 2 2 2 2 2 1 1
1 0 0 0 0 0 0 0 0 0 0 0 0 0 1 1 1 1 1 1 1 1 1 0 0 0 0 0 0 0 0 0 0 1 2 2 2 2 2 2 2 1 1
1 1 0 0 0 0 0 0 0 0 0 0 0 0 0 1 1 1 1 1 1 1 1 1 0 0 0 0 0 0 0 0 0 1 2 2 2 3 2 2 2 1 1
1 1 0 0 0 0 1 1 1 1 1 1 1 0 0 0 1 1 1 1 1 1 1 0 0 0 0 0 0 0 0 0 0 1 1 2 2 2 2 2 1 1 1
1 1 1 1 1 1 1 1 1 1 1 1 1 0 0 0 0 1 1 1 1 1 0 0 0 0 0 0 0 0 0 0 0 0 1 1 1 2 1 1 1 1 1
2 1 1 1 1 1 1 1 1 1 1 0 0 0 0 0 0 0 1 1 0 0 0 0 0 0 0 0 0 0 0 0 0 0 1 1 1 1 1 1 1 0 0
2 2 1 1 1 1 1 1 1 1 0 0 0 0 0 0 0 0 1 1 0 0 0 0 0 0 0 0 0 0 0 0 0 0 1 1 1 1 1 1 1 1 1
2 2 1 1 1 1 1 1 1 1 0 0 0 0 0 0 0 0 1 1 1 0 0 0 0 0 0 0 0 0 0 0 0 0 1 1 1 1 1 1 1 1 1
3 2 2 2 2 2 1 1 1 1 1 1 1 1 1 0 1 1 1 1 1 1 1 1 1 1 1 0 0 0 0 0 0 1 1 1 2 2 2 2 2 2 2
3 3 2 3 3 3 3 2 1 1 1 1 1 1 1 1 1 1 1 1 1 1 1 1 1 1 1 1 1 1 1 1 1 1 1 2 2 2 3 3 3 3 3
5 5 4 4 4 4 3 2 2 2 2 2 2 2 1 1 1 2 2 2 1 1 1 1 1 1 1 1 1 1 1 1 1 1 2 2 2 3 3 3 3 3 3
7 8 7 6 5 4 3 2 2 3 3 3 3 3 2 2 2 2 2 2 2 2 2 2 2 2 2 2 2 2 2 2 2 2 2 2 2 3 3 3 4 3 3
10 10 9 7 5 4 4 4 4 5 6 6 5 4 3 2 2 3 3 3 3 2 2 2 2 2 2 2 2 2 2 2 2 2 2 2 2 2 3 3 3 3 3
15 14 12 10 8 6 5 6 7 9 9 9 8 6 4 3 2 3 3 3 3 2 3 3 2 2 2 1 1 1 1 1 2 2 2 2 2 2 2 2 2 2 2
21 18 16 15 12 9 8 9 10 11 11 10 9 7 6 4 3 3 3 3 2 2 2 2 2 1 1 1 1 0 0 1 1 1 2 2 2 1 1 1 1 1 1
26 23 21 19 17 13 11 11 11 12 11 10 8 7 6 4 3 2 2 2 2 2 2 1 1 1 0 0 0 0 0 0 0 1 1 1 1 1 1 0 1 1 1
29 28 26 23 19 16 13 12 12 11 10 8 6 5 4 3 2 1 1 1 1 1 1 0 0 0 0 0 0 0 0 0 0 0 0 1 1 0 0 0 0 0 0
32 30 28 25 20 16 14 13 11 9 7 5 4 3 2 2 1 0 1 1 1 0 0 0 0 0 0 0 0 0 0 0 0 0 0 0 0 0 0 0 0 0 0
31 30 27 23 19 16 13 12 10 7 4 3 3 2 1 1 0 0 0 0 0 0 0 0 0 0 0 0 0 0 0 0 0 0 0 0 0 0 0 0 0 0 0
27 26 23 19 16 13 12 11 9 6 4 3 2 1 1 0 0 0 0 0 0 0 0 0 0 0 0 0 0 0 0 0 0 0 0 0 0 0 0 0 0 0 0
24 24 21 16 13 12 10 9 7 5 4 3 2 1 1 0 0 0 0 0 0 0 0 0 0 0 0 0 0 0 0 0 0 0 0 0 0 0 0 0 0 0 0
Wind_Speed
16 17 17 16 14 13 12 12 12 12 12 12 12 11 11 10 10 11 11 11 11 11 12 12 11 11 10 9 9 8 7 6 5 4 5 6 7 8 8 8 5 7 11
19 17 17 16 15 13 13 13 13 13 13 13 12 12 11 10 10 10 9 9 10 10 11 11 11 10 9 8 7 6 5 4 3 1 1 4 5 6 6 7 9 7 9
19 17 16 15 15 14 13 13 13 13 14 13 13 12 11 10 10 9 9 9 8 9 10 10 9 9 8 6 5 4 3 4 4 4 4 3 5 6 5 6 8 8 8
18 15 15 16 14 14 13 13 13 13 14 13 13 12 11 10 9 9 9 8 8 8 9 9 8 7 6 5 4 3 3 6 6 7 5 3 4 7 6 7 7 7 6
17 16 17 16 15 14 13 13 12 12 13 13 12 11 11 10 8 8 8 8 8 8 8 8 7 7 6 4 3 2 5 8 9 9 3 4 5 7 7 7 7 6 6
18 17 16 16 15 13 13 12 11 11 11 11 11 10 9 8 7 7 8 8 8 7 8 8 7 6 5 3 2 3 6 9 10 7 3 8 7 8 8 7 6 6 6
18 17 16 15 15 13 12 11 11 10 10 9 9 8 8 7 7 7 7 7 7 8 8 8 7 6 4 2 1 4 7 11 8 3 7 9 8 9 8 7 6 4 4
19 17 15 16 15 14 13 11 10 9 9 8 8 7 7 6 6 7 7 7 7 7 7 7 6 5 3 1 2 5 8 11 8 1 8 9 10 10 8 7 5 4 3
20 18 15 14 13 13 12 12 11 9 9 8 8 7 7 7 7 7 7 7 7 7 6 6 5 4 3 3 4 7 9 10 8 3 8 8 10 10 8 6 5 4 3
18 18 15 15 14 13 12 13 12 11 10 9 9 9 8 8 8 8 8 7 7 6 5 5 5 5 5 6 7 9 9 10 8 1 7 9 12 10 8 5 4 3 3
15 16 15 15 14 13 13 13 12 11 10 10 9 10 8 6 7 7 8 9 8 7 7 7 7 8 8 9 10 10 8 6 6 5 7 12 13 11 7 5 3 3 3
15 14 14 15 14 14 12 11 9 9 9 8 7 9 6 4 5 7 10 10 10 9 8 9 10 9 9 6 9 10 5 7 5 4 7 13 12 11 8 5 3 3 3
15 12 14 14 11 13 10 9 7 6 7 8 8 7 5 5 5 6 5 6 6 8 7 8 8 7 6 1 1 4 3 3 2 4 7 11 11 10 9 7 5 4 4
16 13 14 13 9 9 10 8 6 6 5 5 6 5 4 2 2 3 4 5 5 4 5 3 4 3 1 2 3 4 4 3 2 4 5 10 9 9 9 8 7 6 6
16 12 13 12 8 6 5 4 5 5 5 6 5 3 3 2 1 2 2 2 2 2 2 3 4 5 4 4 4 4 4 5 5 3 4 8 9 9 9 9 8 7 7
16 13 12 12 10 7 4 2 4 5 4 5 4 5 3 3 3 2 2 2 3 4 4 3 5 4 3 3 4 5 5 5 4 4 1 6 9 9 9 10 10 9 8
15 13 12 12 11 9 7 5 4 5 5 5 5 5 3 3 3 2 1 3 3 3 3 3 5 4 3 4 4 4 4 4 4 4 3 2 4 9 10 10 10 9 9
15 14 13 14 14 10 8 6 4 5 6 6 5 5 5 4 3 1 3 4 2 2 3 3 3 4 5 5 4 4 4 4 5 5 4 4 3 3 8 11 11 10 10
14 15 13 11 15 12 9 5 5 5 6 5 5 5 4 3 3 3 4 3 2 2 3 4 4 4 4 4 5 5 3 4 5 8 6 5 5 3 3 8 12 12 12
12 13 11 11 12 10 8 5 5 6 5 5 5 5 6 4 4 3 4 4 3 3 4 3 2 2 3 4 6 6 4 5 6 6 7 6 3 3 2 1 3 7 12
11 11 10 11 11 8 7 7 6 7 6 6 5 6 6 6 6 4 4 3 2 3 3 2 3 4 4 3 3 4 5 6 6 4 3 3 2 2 2 2 1 2 3
13 13 10 9 11 8 6 5 5 7 6 6 6 6 6 6 4 4 4 2 3 2 0 1 1 2 3 4 3 4 4 4 3 5 4 3 4 4 4 6 4 4 4
14 12 10 9 9 7 8 6 7 6 6 5 6 5 5 6 5 4 3 3 3 3 2 2 3 3 3 4 3 2 3 3 5 4 6 6 5 3 3 4 6 5 6
12 9 8 8 8 7 8 8 9 7 6 6 5 4 5 5 4 4 3 3 3 3 3 3 5 4 4 4 4 3 3 3 3 4 4 5 6 5 4 5 6 5 5
12 10 10 10 9 7 6 8 7 7 6 5 6 5 5 4 3 3 4 3 2 2 3 3 3 3 3 4 4 5 6 4 4 5 6 5 5 4 4 4 4 4 5
12 12 11 11 9 7 7 6 7 8 8 8 6 5 4 5 4 4 4 3 1 2 3 2 1 3 2 2 3 4 4 5 5 5 7 7 6 5 6 5 6 5 6
Wind_Direction
112 119 117 111 105 100 99 106 112 116 116 116 115 111 106 100 95 91 87 86 88 90 92 94 94 90 82 72 63 56 50 44 43 53 76 89 93 89 80 70 53 88 91
115 119 117 113 110 107 105 107 110 113 115 116 116 114 111 107 102 97 92 89 88 91 92 93 92 89 84 75 65 53 39 22 4 350 139 138 126 110 91 74 59 92 102
113 120 120 116 115 113 111 110 112 115 117 117 117 117 115 113 108 104 99 95 93 94 95 95 94 92 88 81 69 49 14 332 313 298 267 220 149 139 116 97 95 105 108
121 131 123 123 121 118 117 115 117 120 121 121 121 121 119 117 114 111 107 103 101 100 101 102 101 100 97 89 74 35 333 311 309 301 263 203 151 145 133 115 116 120 124
120 120 126 129 126 124 123 122 122 123 124 124 125 123 121 119 117 115 112 110 108 107 107 107 106 104 99 89 66 355 314 305 307 289 264 115 126 149 137 127 131 137 146
124 124 132 133 132 130 129 128 127 126 125 125 124 123 121 119 117 114 113 114 114 114 113 111 110 107 99 84 38 330 310 304 303 279 125 127 127 138 130 123 127 139 158
126 126 135 137 137 137 136 135 134 131 128 126 125 124 122 119 117 115 113 114 115 117 118 119 119 116 110 91 341 310 302 302 290 295 94 102 108 117 108 102 102 111 144
125 127 135 140 142 144 145 144 141 137 134 131 130 129 129 129 128 123 119 118 117 118 121 125 128 129 130 147 286 291 292 296 302 356 100 101 107 104 101 102 103 104 104
127 132 142 145 148 150 150 148 144 141 140 139 140 143 147 148 142 134 128 125 124 126 130 135 142 152 175 217 256 273 283 294 293 250 113 106 107 104 103 105 110 114 111
136 139 145 151 151 154 153 151 149 149 149 151 155 162 164 162 158 150 145 134 137 141 145 154 172 190 208 229 248 263 280 296 273 209 109 119 116 111 109 113 119 125 129
133 138 149 150 155 158 154 151 153 156 159 160 169 177 179 183 167 166 148 149 159 165 171 186 200 210 218 230 246 258 274 266 272 111 121 131 129 126 127 132 139 147 154
136 148 151 149 157 157 149 152 164 171 168 184 178 180 194 194 173 161 151 169 178 181 188 209 216 224 226 225 231 248 255 255 277 115 125 136 135 136 141 150 166 180 184
145 163 151 153 160 153 144 169 171 171 163 190 176 177 183 179 166 158 163 173 191 192 201 210 219 227 221 201 196 234 268 328 345 86 130 140 143 149 156 166 183 198 203
155 172 155 149 158 153 153 165 157 153 167 163 152 174 163 186 183 154 173 180 193 196 198 200 229 205 66 337 307 300 312 318 350 96 140 149 153 162 169 177 192 207 214
158 169 149 149 136 113 111 152 159 141 151 136 146 170 148 146 106 86 57 48 343 53 56 3 356 24 14 338 328 335 345 346 343 23 135 163 165 173 179 185 194 204 213
157 161 144 142 128 121 131 179 129 128 123 139 137 132 115 86 76 58 62 61 17 38 41 357 359 2 347 350 340 338 340 334 332 341 122 167 182 188 193 197 202 208 217
154 152 143 144 141 149 162 181 159 144 146 128 113 114 102 87 92 60 73 78 39 20 30 20 3 343 342 346 337 339 335 330 319 313 310 255 196 200 206 209 209 213 225
158 151 155 160 154 165 171 189 172 148 132 118 114 109 106 96 94 80 71 76 27 19 39 28 25 9 3 349 342 334 325 311 298 282 264 259 251 221 208 214 218 219 227
156 153 162 159 156 170 166 164 116 101 107 110 112 112 105 102 96 78 77 63 360 42 48 22 44 11 343 334 311 290 301 312 310 299 288 271 261 250 223 214 220 230 239
145 149 160 151 155 162 154 154 128 117 110 101 96 101 104 89 70 70 93 57 14 46 55 45 6 338 307 287 292 304 307 286 280 273 273 270 254 251 265 272 215 241 253
141 159 164 158 155 157 155 163 148 138 123 107 101 94 90 84 69 40 79 88 34 63 56 15 14 332 316 316 315 301 286 277 274 272 304 308 316 344 340 318 283 277 270
168 171 164 156 155 161 153 149 136 126 116 108 101 96 93 88 80 76 45 29 53 30 312 36 24 326 315 338 324 306 300 295 320 359 344 338 355 356 338 319 324 311 299
165 162 162 157 156 157 138 122 112 104 111 115 122 114 105 105 92 69 60 32 22 336 53 19 3 347 338 323 296 302 310 313 340 323 342 340 334 324 321 323 304 289 283
140 133 128 132 132 127 125 132 139 143 144 138 133 121 115 108 110 107 83 59 24 356 26 8 49 349 336 309 324 341 330 332 313 310 309 300 303 312 302 289 285 287 284
122 115 110 108 108 114 122 132 137 128 122 120 116 124 130 116 115 113 99 71 31 359 59 32 13 348 330 346 350 343 333 325 295 281 297 307 310 295 291 296 307 306 306
111 108 107 105 102 102 108 115 120 123 128 129 135 147 161 149 148 130 117 90 2 28 49 15 355 299 339 351 331 318 314 315 322 323 314 310 305 314 329 331 318 302 294